Weather History for Savannah, GA

Change the Weather History Date:

Tuesday, November 20, 2012

  Actual Average Record
Temperature  
Mean Temperature 59 °F 58 °F  
Max Temperature 71 °F 69 °F 83 °F (1942)
Min Temperature 47 °F 47 °F 24 °F (1914)
Degree Days  
Heating Degree Days 6 8  
Month to date heating degree days 169 117  
Since 1 July heating degree days 203 174  
Cooling Degree Days 0 1  
Month to date cooling degree days 8 30  
Year to date cooling degree days 2664 2442  
Growing Degree Days 10 (Base 50)    
Moisture  
Dew Point 48 °F    
Average Humidity 70    
Maximum Humidity 93    
Minimum Humidity 47    
Precipitation  
Precipitation 0.00 in 0.08 in 1.90 in (1894)
Month to date precipitation 0.45 1.58  
Year to date precipitation 38.27 44.22  
Snow  
Snow 0.00 in 0.00 in - ()
Month to date snowfall 0.0  
Since 1 July snowfall 0.0 0.0  
Since 1 September snowfall 0.0 0.0  
Snow Depth 0.00 in    
Sea Level Pressure  
Sea Level Pressure 30.10 in    
Wind  
Wind Speed 4 mph (North)    
Max Wind Speed 15 mph    
Max Gust Speed 17 mph    
Visibility 10 miles    
Events      
T = Trace of Precipitation, MM = Missing Value Source: NWS Daily Summary

Daily Weather History Graph

Daily Weather History Graph

Search for Another Location

Airport:

Trip Planner

Search our weather history database for the weather conditions in past years. The results will help you decide how hot, cold, wet, or windy it might be!

Date:

Astronomy

Nov. 20, 2012 Rise Set
Actual Time 6:58 AM EST 5:22 PM EST
Civil Twilight 6:32 AM EST 5:48 PM EST
Nautical Twilight 6:02 AM EST 6:18 PM EST
Astronomical Twilight 5:33 AM EST 6:47 PM EST
Moon 12:44 PM EST (11/20) No Moon Set
Length of Visible Light 11h 16m
Length of Day
10h 23m
Waxing Crescent, 51% of the Moon is Illuminated
Nov 20
Waxing Crescent
Nov 28
Full
Dec 6
Last Quarter
Dec 13
New
Dec 20
First Quarter

Hourly Weather History & Observations

Time (EST) Temp. Dew Point Humidity Pressure Visibility Wind Dir Wind Speed Gust Speed Precip Events Conditions
12:53 AM 50.0 °F 48.0 °F 93% 30.14 in 10.0 mi Calm Calm - N/A   Scattered Clouds
1:53 AM 50.0 °F 48.9 °F 96% 30.11 in 9.0 mi North 3.5 mph - N/A   Partly Cloudy
2:53 AM 51.1 °F 48.9 °F 92% 30.11 in 10.0 mi NNW 4.6 mph - N/A   Clear
3:53 AM 50.0 °F 46.9 °F 89% 30.11 in 10.0 mi North 5.8 mph - N/A   Clear
4:53 AM 48.9 °F 46.0 °F 90% 30.11 in 10.0 mi North 6.9 mph - N/A   Clear
5:53 AM 48.0 °F 46.0 °F 93% 30.13 in 10.0 mi Calm Calm - N/A   Clear
6:53 AM 48.0 °F 45.0 °F 89% 30.15 in 10.0 mi NNW 3.5 mph - N/A   Partly Cloudy
7:53 AM 50.0 °F 46.0 °F 86% 30.15 in 10.0 mi NNE 5.8 mph - N/A   Partly Cloudy
8:53 AM 53.1 °F 46.0 °F 77% 30.16 in 10.0 mi North 5.8 mph - N/A   Scattered Clouds
9:53 AM 57.0 °F 46.9 °F 69% 30.16 in 10.0 mi North 6.9 mph - N/A   Scattered Clouds
10:53 AM 62.1 °F 46.9 °F 58% 30.14 in 10.0 mi North 6.9 mph - N/A   Scattered Clouds
11:53 AM 66.0 °F 48.0 °F 52% 30.11 in 10.0 mi North 9.2 mph - N/A   Scattered Clouds
12:53 PM 66.9 °F 48.0 °F 51% 30.08 in 10.0 mi North 10.4 mph - N/A   Mostly Cloudy
1:53 PM 69.1 °F 48.0 °F 47% 30.06 in 10.0 mi North 5.8 mph - N/A   Mostly Cloudy
2:53 PM 70.0 °F 48.0 °F 46% 30.04 in 10.0 mi North 8.1 mph - N/A   Mostly Cloudy
3:53 PM 68.0 °F 48.9 °F 50% 30.04 in 10.0 mi North 9.2 mph - N/A   Mostly Cloudy
4:53 PM 66.0 °F 48.9 °F 54% 30.04 in 10.0 mi NNE 6.9 mph - N/A   Mostly Cloudy
5:53 PM 60.1 °F 50.0 °F 69% 30.05 in 10.0 mi Calm Calm - N/A   Mostly Cloudy
6:53 PM 57.0 °F 51.1 °F 81% 30.06 in 10.0 mi Calm Calm - N/A   Mostly Cloudy
7:53 PM 54.0 °F 51.1 °F 90% 30.07 in 10.0 mi Calm Calm - N/A   Mostly Cloudy
8:53 PM 55.9 °F 50.0 °F 80% 30.08 in 10.0 mi Calm Calm - N/A   Scattered Clouds
9:53 PM 51.1 °F 48.0 °F 89% 30.08 in 10.0 mi Calm Calm - N/A   Scattered Clouds
10:53 PM 51.1 °F 46.9 °F 86% 30.09 in 10.0 mi Calm Calm - N/A   Scattered Clouds